TimeEST,TemperatureF,Dew PointF,Humidity,Sea Level PressureIn,VisibilityMPH,Wind Direction,Wind SpeedMPH,Gust SpeedMPH,PrecipitationIn,Events,Conditions,WindDirDegrees,DateUTC
12:53 AM,7.0,1.9,80,30.35,6.0,Calm,Calm,-,N/A,,Haze,0,2014-02-11 05:53:00
1:53 AM,9.0,3.9,80,30.35,5.0,NNW,3.5,-,N/A,,Haze,330,2014-02-11 06:53:00
2:53 AM,17.1,3.0,54,30.35,10.0,NW,8.1,-,N/A,,Mostly Cloudy,310,2014-02-11 07:53:00
3:53 AM,7.0,1.9,80,30.36,9.0,North,3.5,-,N/A,,Clear,350,2014-02-11 08:53:00
4:53 AM,1.9,-2.0,83,30.37,10.0,Calm,Calm,-,N/A,,Clear,0,2014-02-11 09:53:00
5:53 AM,-0.9,-5.1,83,30.39,9.0,Calm,Calm,-,N/A,,Clear,0,2014-02-11 10:53:00
6:53 AM,-2.0,-5.1,87,30.41,9.0,Calm,Calm,-,N/A,,Clear,0,2014-02-11 11:53:00
7:53 AM,-0.9,-6.0,79,30.44,6.0,Calm,Calm,-,N/A,,Haze,0,2014-02-11 12:53:00
8:53 AM,5.0,-0.9,76,30.47,6.0,Calm,Calm,-,N/A,,Haze,0,2014-02-11 13:53:00
9:53 AM,12.9,3.0,65,30.47,9.0,Calm,Calm,-,N/A,,Clear,0,2014-02-11 14:53:00
10:53 AM,18.0,3.0,52,30.47,10.0,NNW,5.8,-,N/A,,Partly Cloudy,340,2014-02-11 15:53:00
11:53 AM,19.0,3.0,50,30.45,10.0,NNW,6.9,-,N/A,,Partly Cloudy,330,2014-02-11 16:53:00
12:53 PM,21.0,3.9,48,30.42,10.0,North,-9999.0,-,0.00,,Scattered Clouds,0,2014-02-11 17:53:00
1:53 PM,24.1,3.9,42,30.39,9.0,Variable,3.5,-,0.00,,Clear,0,2014-02-11 18:53:00
2:53 PM,24.1,3.9,42,30.39,10.0,NNW,10.4,-,N/A,,Clear,340,2014-02-11 19:53:00
3:53 PM,23.0,3.9,44,30.40,10.0,Variable,6.9,-,0.00,,Clear,0,2014-02-11 20:53:00
4:53 PM,21.9,1.9,42,30.41,10.0,NNW,4.6,-,N/A,,Clear,340,2014-02-11 21:53:00
5:53 PM,19.0,1.9,47,30.43,10.0,Calm,Calm,-,N/A,,Clear,0,2014-02-11 22:53:00
6:53 PM,14.0,3.0,62,30.46,10.0,NNW,3.5,-,N/A,,Clear,330,2014-02-11 23:53:00
7:53 PM,8.1,-0.9,67,30.49,10.0,NNW,5.8,-,N/A,,Clear,340,2014-02-12 00:53:00
8:53 PM,10.0,-0.0,64,30.51,10.0,NNE,3.5,-,N/A,,Clear,20,2014-02-12 01:53:00
9:53 PM,5.0,-0.9,76,30.53,10.0,Calm,Calm,-,N/A,,Clear,0,2014-02-12 02:53:00
10:53 PM,1.9,-2.9,80,30.54,10.0,NNW,5.8,-,N/A,,Clear,340,2014-02-12 03:53:00
11:53 PM,-2.0,-7.1,79,30.54,10.0,Calm,Calm,-,N/A,,Clear,0,2014-02-12 04:53:00